Time,TemperatureF,DewpointF,PressureIn,WindDirection,WindDirectionDegrees,WindSpeedMPH,WindSpeedGustMPH,Humidity,HourlyPrecipIn,Conditions,Clouds,dailyrainin,SoftwareType,DateUTC
2013-02-01 00:01:00,7.0,2.0,26.64,SE,128,7.0,9.0,80,0.00,,,0.00,,2013-02-01 07:01:00,
2013-02-01 00:12:00,7.0,2.0,26.64,SE,128,7.0,9.0,80,0.00,,,0.00,,2013-02-01 07:12:00,
2013-02-01 00:22:00,8.0,3.0,26.64,SE,126,4.0,7.0,80,0.00,,,0.00,,2013-02-01 07:22:00,
2013-02-01 00:32:00,8.0,3.0,26.64,ESE,118,4.0,7.0,80,0.00,,,0.00,,2013-02-01 07:32:00,
2013-02-01 00:42:00,8.0,3.0,26.64,ESE,118,4.0,7.0,80,0.00,,,0.00,,2013-02-01 07:42:00,
2013-02-01 00:52:00,8.0,3.0,26.63,ESE,121,5.0,7.0,80,0.00,,,0.00,,2013-02-01 07:52:00,
2013-02-01 01:01:00,9.0,4.0,26.62,ESE,119,4.0,8.0,80,0.00,,,0.00,,2013-02-01 08:01:00,
2013-02-01 01:11:00,9.0,4.0,26.62,ESE,119,4.0,8.0,80,0.00,,,0.00,,2013-02-01 08:11:00,
2013-02-01 01:21:00,9.0,4.0,26.62,SE,126,3.0,6.0,80,0.00,,,0.00,,2013-02-01 08:21:00,
2013-02-01 01:31:00,9.0,4.0,26.62,ESE,112,5.0,8.0,80,0.00,,,0.00,,2013-02-01 08:31:00,
2013-02-01 01:42:00,9.0,4.0,26.62,ESE,112,5.0,8.0,80,0.00,,,0.00,,2013-02-01 08:42:00,
2013-02-01 01:52:00,9.0,4.0,26.62,ESE,117,4.0,7.0,80,0.00,,,0.00,,2013-02-01 08:52:00,
2013-02-01 02:01:00,9.0,4.0,26.61,ESE,105,3.0,8.0,80,0.00,,,0.00,,2013-02-01 09:01:00,
2013-02-01 02:11:00,9.0,4.0,26.61,ESE,105,3.0,8.0,80,0.00,,,0.00,,2013-02-01 09:11:00,
2013-02-01 02:21:00,10.0,5.0,26.61,ESE,105,1.0,5.0,80,0.00,,,0.00,,2013-02-01 09:21:00,
2013-02-01 02:32:00,10.0,5.0,26.60,ESE,105,4.0,6.0,80,0.00,,,0.00,,2013-02-01 09:32:00,
2013-02-01 02:41:00,10.0,5.0,26.60,ESE,105,4.0,6.0,80,0.00,,,0.00,,2013-02-01 09:41:00,
2013-02-01 02:52:00,10.0,5.0,26.60,ESE,105,4.0,5.0,80,0.00,,,0.00,,2013-02-01 09:52:00,
2013-02-01 03:01:00,10.0,5.0,26.60,ESE,117,5.0,8.0,80,0.00,,,0.00,,2013-02-01 10:01:00,
2013-02-01 03:11:00,10.0,5.0,26.60,ESE,117,5.0,8.0,80,0.00,,,0.00,,2013-02-01 10:11:00,
2013-02-01 03:21:00,10.0,5.0,26.60,ESE,122,2.0,5.0,80,0.00,,,0.00,,2013-02-01 10:21:00,
2013-02-01 03:31:00,11.0,6.0,26.59,ESE,123,4.0,6.0,80,0.00,,,0.00,,2013-02-01 10:31:00,
2013-02-01 03:42:00,11.0,6.0,26.59,ESE,123,4.0,6.0,80,0.00,,,0.00,,2013-02-01 10:42:00,
2013-02-01 03:53:00,11.0,6.0,26.59,ESE,121,1.0,6.0,80,0.00,,,0.00,,2013-02-01 10:53:00,
2013-02-01 04:02:00,10.0,5.0,26.58,ESE,121,3.0,5.0,79,0.00,,,0.00,,2013-02-01 11:02:00,
2013-02-01 04:11:00,10.0,5.0,26.58,ESE,121,3.0,5.0,79,0.00,,,0.00,,2013-02-01 11:11:00,
2013-02-01 04:22:00,11.0,6.0,26.57,ESE,121,3.0,5.0,80,0.00,,,0.00,,2013-02-01 11:22:00,
2013-02-01 04:32:00,11.0,6.0,26.57,ESE,121,0.0,4.0,79,0.00,,,0.00,,2013-02-01 11:32:00,
2013-02-01 04:42:00,11.0,6.0,26.57,ESE,121,0.0,4.0,79,0.00,,,0.00,,2013-02-01 11:42:00,
2013-02-01 04:53:00,11.0,6.0,26.57,ESE,121,0.0,0.0,79,0.00,,,0.00,,2013-02-01 11:53:00,
2013-02-01 05:02:00,11.0,6.0,26.56,ESE,121,1.0,2.0,79,0.00,,,0.00,,2013-02-01 12:02:00,
2013-02-01 05:22:00,11.0,6.0,26.56,ESE,121,1.0,4.0,79,0.00,,,0.00,,2013-02-01 12:22:00,
2013-02-01 05:32:00,12.0,7.0,26.55,ESE,121,1.0,2.0,79,0.00,,,0.00,,2013-02-01 12:32:00,
2013-02-01 05:52:00,12.0,7.0,26.55,ESE,121,0.0,0.0,79,0.00,,,0.00,,2013-02-01 12:52:00,
2013-02-01 06:02:00,15.0,10.0,26.55,ESE,121,4.0,5.0,80,0.00,,,0.00,,2013-02-01 13:02:00,
2013-02-01 06:22:00,16.0,11.0,26.55,ESE,121,0.0,2.0,80,0.00,,,0.00,,2013-02-01 13:22:00,
2013-02-01 06:32:00,16.0,11.0,26.55,ESE,121,0.0,0.0,79,0.00,,,0.00,,2013-02-01 13:32:00,
2013-02-01 06:53:00,16.0,11.0,26.55,ESE,121,2.0,5.0,79,0.00,,,0.00,,2013-02-01 13:53:00,
2013-02-01 07:03:00,23.0,18.0,26.55,ESE,121,0.0,4.0,81,0.00,,,0.00,,2013-02-01 14:03:00,
2013-02-01 07:11:00,23.0,18.0,26.55,ESE,121,0.0,4.0,81,0.00,,,0.00,,2013-02-01 14:11:00,
2013-02-01 07:21:00,23.0,18.0,26.55,ESE,119,0.0,2.0,80,0.00,,,0.00,,2013-02-01 14:21:00,
2013-02-01 07:32:00,24.0,18.0,26.54,ESE,119,0.0,1.0,79,0.00,,,0.00,,2013-02-01 14:32:00,
2013-02-01 07:42:00,24.0,18.0,26.54,ESE,119,0.0,1.0,79,0.00,,,0.00,,2013-02-01 14:42:00,
2013-02-01 07:53:00,23.0,17.0,26.54,ESE,118,0.0,2.0,78,0.00,,,0.00,,2013-02-01 14:53:00,
2013-02-01 08:02:00,23.0,17.0,26.54,ESE,119,0.0,0.0,79,0.00,,,0.00,,2013-02-01 15:02:00,
2013-02-01 08:12:00,25.0,20.0,26.54,ESE,118,1.0,2.0,80,0.00,,,0.00,,2013-02-01 15:12:00,
2013-02-01 08:22:00,25.0,20.0,26.54,ESE,118,1.0,2.0,80,0.00,,,0.00,,2013-02-01 15:22:00,
2013-02-01 08:33:00,28.0,23.0,26.55,NE,40,2.0,5.0,80,0.00,,,0.00,,2013-02-01 15:33:00,
2013-02-01 08:42:00,28.0,23.0,26.55,NE,40,2.0,5.0,80,0.00,,,0.00,,2013-02-01 15:42:00,
2013-02-01 08:52:00,29.0,23.0,26.54,NE,40,0.0,5.0,79,0.00,,,0.00,,2013-02-01 15:52:00,
2013-02-01 09:02:00,28.0,22.0,26.55,NE,40,1.0,5.0,77,0.00,,,0.00,,2013-02-01 16:02:00,
2013-02-01 09:11:00,29.0,23.0,26.55,NE,45,0.0,1.0,78,0.00,,,0.00,,2013-02-01 16:11:00,
2013-02-01 09:22:00,29.0,23.0,26.55,NE,45,0.0,1.0,78,0.00,,,0.00,,2013-02-01 16:22:00,
2013-02-01 09:33:00,30.0,24.0,26.55,NE,44,0.0,2.0,78,0.00,,,0.00,,2013-02-01 16:33:00,
2013-02-01 09:42:00,31.0,25.0,26.55,NE,44,3.0,5.0,77,0.00,,,0.00,,2013-02-01 16:42:00,
2013-02-01 09:52:00,31.0,25.0,26.55,NE,44,3.0,5.0,77,0.00,,,0.00,,2013-02-01 16:52:00,
2013-02-01 10:02:00,33.0,26.0,26.55,NE,44,0.0,4.0,76,0.00,,,0.00,,2013-02-01 17:02:00,
2013-02-01 10:11:00,33.0,26.0,26.55,NE,44,0.0,4.0,76,0.00,,,0.00,,2013-02-01 17:11:00,
2013-02-01 10:22:00,36.0,28.0,26.55,NE,44,0.0,2.0,73,0.00,,,0.00,,2013-02-01 17:22:00,
2013-02-01 10:32:00,40.0,30.0,26.54,NE,44,2.0,4.0,68,0.00,,,0.00,,2013-02-01 17:32:00,
2013-02-01 10:42:00,40.0,30.0,26.54,NE,44,2.0,4.0,68,0.00,,,0.00,,2013-02-01 17:42:00,
2013-02-01 10:53:00,41.0,30.0,26.55,NE,48,0.0,1.0,64,0.00,,,0.00,,2013-02-01 17:53:00,
2013-02-01 11:02:00,43.0,30.0,26.55,NW,306,5.0,10.0,61,0.01,,,0.01,,2013-02-01 18:02:00,
2013-02-01 11:12:00,43.0,30.0,26.55,NW,306,5.0,10.0,61,0.01,,,0.01,,2013-02-01 18:12:00,
2013-02-01 11:22:00,45.0,30.0,26.55,North,350,9.0,13.0,56,0.01,,,0.01,,2013-02-01 18:22:00,
2013-02-01 11:32:00,43.0,30.0,26.55,ENE,72,4.0,8.0,60,0.01,,,0.01,,2013-02-01 18:32:00,
2013-02-01 11:42:00,43.0,30.0,26.55,ENE,72,4.0,8.0,60,0.01,,,0.01,,2013-02-01 18:42:00,
2013-02-01 11:53:00,42.0,31.0,26.55,ENE,64,0.0,8.0,66,0.01,,,0.01,,2013-02-01 18:53:00,
2013-02-01 12:02:00,42.0,31.0,26.55,ENE,70,0.0,2.0,66,0.00,,,0.01,,2013-02-01 19:02:00,
2013-02-01 12:11:00,42.0,31.0,26.55,ENE,70,0.0,2.0,66,0.00,,,0.01,,2013-02-01 19:11:00,
2013-02-01 12:21:00,42.0,31.0,26.55,North,355,7.0,11.0,65,0.00,,,0.01,,2013-02-01 19:21:00,
2013-02-01 12:32:00,41.0,31.0,26.55,North,355,9.0,15.0,66,0.00,,,0.01,,2013-02-01 19:32:00,
2013-02-01 12:41:00,41.0,31.0,26.55,North,355,9.0,15.0,66,0.00,,,0.01,,2013-02-01 19:41:00,
2013-02-01 12:52:00,42.0,31.0,26.56,North,5,7.0,15.0,65,0.00,,,0.01,,2013-02-01 19:52:00,
2013-02-01 13:02:00,42.0,31.0,26.56,NNE,19,7.0,13.0,64,0.00,,,0.01,,2013-02-01 20:02:00,
2013-02-01 13:11:00,42.0,31.0,26.56,NNW,336,9.0,21.0,64,0.00,,,0.01,,2013-02-01 20:11:00,
2013-02-01 13:21:00,42.0,31.0,26.56,NNW,336,9.0,21.0,64,0.00,,,0.01,,2013-02-01 20:21:00,
2013-02-01 13:31:00,40.0,31.0,26.57,NNE,15,11.0,24.0,69,0.00,,,0.01,,2013-02-01 20:31:00,
2013-02-01 13:41:00,40.0,31.0,26.57,NNE,15,11.0,24.0,69,0.00,,,0.01,,2013-02-01 20:41:00,
2013-02-01 13:52:00,40.0,31.0,26.57,NNW,348,11.0,19.0,69,0.00,,,0.01,,2013-02-01 20:52:00,
2013-02-01 14:02:00,41.0,31.0,26.57,NW,322,8.0,19.0,68,0.00,,,0.01,,2013-02-01 21:02:00,
2013-02-01 14:12:00,41.0,31.0,26.57,NW,322,8.0,19.0,68,0.00,,,0.01,,2013-02-01 21:12:00,
2013-02-01 14:21:00,41.0,31.0,26.57,NNW,341,14.0,22.0,68,0.00,,,0.01,,2013-02-01 21:21:00,
2013-02-01 14:32:00,40.0,30.0,26.58,NE,35,16.0,25.0,68,0.00,,,0.01,,2013-02-01 21:32:00,
2013-02-01 14:41:00,40.0,30.0,26.58,NE,35,16.0,25.0,68,0.00,,,0.01,,2013-02-01 21:41:00,
2013-02-01 14:52:00,38.0,29.0,26.58,NNW,336,9.0,20.0,71,0.00,,,0.01,,2013-02-01 21:52:00,
2013-02-01 15:02:00,38.0,29.0,26.58,NE,46,11.0,20.0,70,0.00,,,0.01,,2013-02-01 22:02:00,
2013-02-01 15:11:00,38.0,29.0,26.58,NE,46,11.0,20.0,70,0.00,,,0.01,,2013-02-01 22:11:00,
2013-02-01 15:21:00,39.0,30.0,26.59,North,360,10.0,21.0,70,0.00,,,0.01,,2013-02-01 22:21:00,
2013-02-01 15:32:00,39.0,30.0,26.59,NNW,345,7.0,12.0,69,0.00,,,0.01,,2013-02-01 22:32:00,
2013-02-01 15:42:00,39.0,30.0,26.59,NNW,345,7.0,12.0,69,0.00,,,0.01,,2013-02-01 22:42:00,
2013-02-01 15:52:00,41.0,30.0,26.59,North,5,8.0,14.0,65,0.00,,,0.01,,2013-02-01 22:52:00,
2013-02-01 16:01:00,41.0,29.0,26.60,North,11,9.0,16.0,62,0.00,,,0.01,,2013-02-01 23:01:00,
2013-02-01 16:11:00,41.0,29.0,26.60,North,11,9.0,16.0,62,0.00,,,0.01,,2013-02-01 23:11:00,
2013-02-01 16:21:00,41.0,28.0,26.59,NNW,344,9.0,13.0,59,0.00,,,0.01,,2013-02-01 23:21:00,
2013-02-01 16:31:00,42.0,28.0,26.59,NW,322,6.0,14.0,57,0.00,,,0.01,,2013-02-01 23:31:00,
2013-02-01 16:41:00,42.0,28.0,26.59,NW,322,6.0,14.0,57,0.00,,,0.01,,2013-02-01 23:41:00,
2013-02-01 16:52:00,42.0,27.0,26.59,NNW,345,7.0,14.0,56,0.00,,,0.01,,2013-02-01 23:52:00,
2013-02-01 17:02:00,41.0,27.0,26.60,NE,44,7.0,15.0,56,0.00,,,0.01,,2013-02-02 00:02:00,
2013-02-01 17:11:00,41.0,27.0,26.60,NE,44,7.0,15.0,56,0.00,,,0.01,,2013-02-02 00:11:00,
2013-02-01 17:21:00,40.0,27.0,26.61,NNW,344,7.0,12.0,59,0.00,,,0.01,,2013-02-02 00:21:00,
2013-02-01 17:32:00,39.0,27.0,26.62,NNE,17,5.0,8.0,61,0.00,,,0.01,,2013-02-02 00:32:00,
2013-02-01 17:42:00,39.0,27.0,26.62,NNE,17,5.0,8.0,61,0.00,,,0.01,,2013-02-02 00:42:00,
2013-02-01 17:52:00,38.0,27.0,26.62,North,360,4.0,8.0,63,0.00,,,0.01,,2013-02-02 00:52:00,
2013-02-01 18:02:00,39.0,27.0,26.63,North,360,8.0,15.0,62,0.00,,,0.01,,2013-02-02 01:02:00,
2013-02-01 18:11:00,39.0,27.0,26.63,North,360,8.0,15.0,62,0.00,,,0.01,,2013-02-02 01:11:00,
2013-02-01 18:21:00,39.0,27.0,26.63,NNW,330,7.0,14.0,62,0.00,,,0.01,,2013-02-02 01:21:00,
2013-02-01 18:32:00,39.0,28.0,26.64,NW,323,6.0,10.0,64,0.00,,,0.01,,2013-02-02 01:32:00,
2013-02-01 18:41:00,39.0,28.0,26.64,NW,323,6.0,10.0,64,0.00,,,0.01,,2013-02-02 01:41:00,
2013-02-01 18:52:00,39.0,28.0,26.64,NW,319,5.0,9.0,65,0.00,,,0.01,,2013-02-02 01:52:00,
2013-02-01 19:01:00,39.0,28.0,26.64,NW,317,4.0,8.0,65,0.00,,,0.01,,2013-02-02 02:01:00,
2013-02-01 19:11:00,39.0,28.0,26.64,NW,317,4.0,8.0,65,0.00,,,0.01,,2013-02-02 02:11:00,
2013-02-01 19:21:00,39.0,27.0,26.64,NW,317,4.0,9.0,62,0.00,,,0.01,,2013-02-02 02:21:00,
2013-02-01 19:32:00,39.0,27.0,26.64,WNW,296,3.0,8.0,61,0.00,,,0.01,,2013-02-02 02:32:00,
2013-02-01 19:42:00,39.0,27.0,26.64,WNW,296,3.0,8.0,61,0.00,,,0.01,,2013-02-02 02:42:00,
2013-02-01 19:52:00,39.0,27.0,26.64,West,269,5.0,9.0,61,0.00,,,0.01,,2013-02-02 02:52:00,
2013-02-01 20:02:00,39.0,27.0,26.65,West,279,4.0,7.0,61,0.00,,,0.01,,2013-02-02 03:02:00,
2013-02-01 20:11:00,39.0,27.0,26.65,West,279,4.0,7.0,61,0.00,,,0.01,,2013-02-02 03:11:00,
2013-02-01 20:22:00,39.0,27.0,26.65,West,274,5.0,8.0,61,0.00,,,0.01,,2013-02-02 03:22:00,
2013-02-01 20:32:00,39.0,26.0,26.65,West,263,4.0,8.0,60,0.00,,,0.01,,2013-02-02 03:32:00,
2013-02-01 20:42:00,39.0,26.0,26.65,West,275,1.0,5.0,59,0.00,,,0.01,,2013-02-02 03:42:00,
2013-02-01 20:52:00,39.0,26.0,26.65,West,275,1.0,5.0,59,0.00,,,0.01,,2013-02-02 03:52:00,
2013-02-01 21:01:00,39.0,26.0,26.65,West,275,0.0,0.0,59,0.00,,,0.01,,2013-02-02 04:01:00,
2013-02-01 21:11:00,39.0,26.0,26.65,West,275,0.0,0.0,59,0.00,,,0.01,,2013-02-02 04:11:00,
2013-02-01 21:21:00,38.0,25.0,26.66,West,275,2.0,5.0,60,0.00,,,0.01,,2013-02-02 04:21:00,
2013-02-01 21:32:00,38.0,26.0,26.65,West,260,4.0,6.0,61,0.00,,,0.01,,2013-02-02 04:32:00,
2013-02-01 21:42:00,38.0,26.0,26.65,West,260,4.0,6.0,61,0.00,,,0.01,,2013-02-02 04:42:00,
2013-02-01 21:52:00,37.0,25.0,26.66,West,260,0.0,2.0,61,0.00,,,0.01,,2013-02-02 04:52:00,
2013-02-01 22:03:00,37.0,25.0,26.67,West,260,0.0,1.0,62,0.00,,,0.01,,2013-02-02 05:03:00,
2013-02-01 22:12:00,37.0,25.0,26.67,West,260,0.0,1.0,62,0.00,,,0.01,,2013-02-02 05:12:00,
2013-02-01 22:22:00,37.0,26.0,26.67,West,279,1.0,5.0,63,0.00,,,0.01,,2013-02-02 05:22:00,
2013-02-01 22:33:00,37.0,25.0,26.67,NW,313,0.0,2.0,61,0.00,,,0.01,,2013-02-02 05:33:00,
2013-02-01 22:41:00,37.0,25.0,26.67,NW,313,0.0,2.0,61,0.00,,,0.01,,2013-02-02 05:41:00,
2013-02-01 22:52:00,38.0,25.0,26.67,WNW,300,0.0,4.0,59,0.00,,,0.01,,2013-02-02 05:52:00,
2013-02-01 23:02:00,39.0,25.0,26.67,North,360,6.0,15.0,58,0.00,,,0.01,,2013-02-02 06:02:00,
2013-02-01 23:12:00,39.0,25.0,26.67,North,360,6.0,15.0,58,0.00,,,0.01,,2013-02-02 06:12:00,
2013-02-01 23:21:00,39.0,27.0,26.68,NW,312,8.0,20.0,61,0.00,,,0.01,,2013-02-02 06:21:00,
2013-02-01 23:31:00,38.0,27.0,26.68,West,279,7.0,14.0,64,0.00,,,0.01,,2013-02-02 06:31:00,
2013-02-01 23:41:00,38.0,27.0,26.68,West,279,7.0,14.0,64,0.00,,,0.01,,2013-02-02 06:41:00,
2013-02-01 23:52:00,38.0,27.0,26.69,WNW,290,8.0,18.0,65,0.00,,,0.01,,2013-02-02 06:52:00,